Regional Weather Roundup
Issued by NWS

Home | Current Version | Previous Version | Text Only | Print | Product List | Glossary On
Versions: 1 2 3 4 5 6 7 8 9 10 11 12 13 14 15 16 17 18 19 20 21 22 23 24 25 26 27 28 29 30 31 32 33 34 35 36 37 38 39 40 41 42 43 44 45 46 47 48 49
000
ASUS45 KBOI 050710
RWRID

IDAHO REGIONAL WEATHER ROUNDUP
NATIONAL WEATHER SERVICE BOISE ID
100 AM MDT SUN JUL 05 2015

NOTE: "FAIR" INDICATES FEW OR NO CLOUDS BELOW 12000 FEET
WITH NO SIGNIFICANT WEATHER AND/OR OBSTRUCTIONS TO VISIBILITY

IDZ012-014-050800-
SOUTHWEST IDAHO


CITY           SKY/WX    TMP DP  RH WIND       PRES   REMARKS
BOISE          MOCLDY    83  39  21 CALM      29.79R
CALDWELL       MOCLDY    81  48  32 SW10      29.77S
MOUNTAIN HOME  PTCLDY    82  51  34 SW8       29.80S
$$

IDZ016-017-050800-
SOUTHCENTRAL IDAHO


CITY           SKY/WX    TMP DP  RH WIND       PRES   REMARKS
BURLEY         CLOUDY    75  51  43 W9        29.88F
JEROME         MOCLDY    75  50  41 SW6       29.91R
TWIN FALLS     CLOUDY    80  48  32 S15       29.88S
$$

IDZ019>023-050800-
SOUTHEAST IDAHO


CITY           SKY/WX    TMP DP  RH WIND       PRES   REMARKS
IDAHO FALLS    MOCLDY    76  51  41 S17       29.89F
POCATELLO      CLEAR     77  47  34 SW9       29.92R
REXBURG        MOCLDY    75  49  39 S15       29.89S
$$

IDZ006-010-011-018-031-032-050800-
CENTRAL IDAHO MOUNTAINS


CITY           SKY/WX    TMP DP  RH WIND       PRES   REMARKS
MCCALL         MOCLDY    67  44  43 NE3       29.94S
HAILEY         MOCLDY    64  48  55 W5        29.99R
STANLEY          N/A     57  34  41 CALM      30.08S
SALMON         MOCLDY    73  43  33 S3        29.84R
CHALLIS        CLOUDY    76  31  19 W6        29.93S
$$

IDZ002-004-006-007-026-050800-
NORTHERN IDAHO


CITY           SKY/WX    TMP DP  RH WIND       PRES   REMARKS
LEWISTON       MOCLDY    85  42  22 CALM      29.68S
LOWELL           N/A     70  57  63 N5        29.75R
COEUR D`ALENE  CLEAR     75  45  33 E6        29.73S
MULLAN PASS    PTCLDY    70  35  27 W5        30.01S
$$


USA.gov is the U.S. government's official web portal to all federal, state and local government web resources and services.